Location: George Washington National Forest Helicopter Landing Site
(38.6463°N, 79.0851°W)
Time: 03:15:13
(UTC-04:00)

Tiros 1 despin weight - Pass Details

Date: 20 August 2019
Orbit: 594 x 642 km, 48.2° (Epoch: 17 September)

Event Time Altitude Azimuth Distance (km) Brightness Sun altitude
Rises 05:38:56 0° 301° (WNW) 2,879 ? -11.0°
Reaches altitude 10° 05:41:27 10° 312° (NW) 1,982 ? -10.5°
Maximum altitude 05:45:30 31° 15° (NNE) 1,105 ? -9.8°
Drops below altitude 10° 05:49:37 10° 78° (ENE) 2,005 ? -9.1°
Sets 05:52:10 0° 89° (E) 2,919 ? -8.6°
